Regional Weather Roundup
Issued by NWS

Home | Current Version | Previous Version | Text Only | Print | Product List | Glossary Off
Versions: 1 2 3 4 5 6 7 8 9 10 11 12 13 14 15 16 17 18 19 20 21 22 23 24 25 26 27 28 29 30 31 32 33 34 35 36 37 38 39 40 41 42 43 44 45 46 47 48 49 50

000
ASUS43 KLOT 161309
RWRIL

ILLINOIS REGIONAL WEATHER ROUNDUP
NATIONAL WEATHER SERVICE CHICAGO/ROMEOVILLE IL
800 AM CDT MON OCT 16 2017

NOTE: "FAIR" INDICATES FEW OR NO CLOUDS BELOW 12,000 FEET WITH NO
SIGNIFICANT WEATHER AND/OR OBSTRUCTIONS TO VISIBILITY.

* THESE STATIONS ARE NOT UNDER NWS QUALITY CONTROL. THEY ALSO MAY NOT
  REPORT WEATHER SUCH AS PRECIPITATION OR FOG.

ILZ001-002-007-009-015-016-024-161400-
NORTHWEST ILLINOIS

CITY           SKY/WX    TMP DP  RH WIND       PRES   REMARKS
MOLINE         CLEAR     40  37  89 CALM      30.32R
STERLING*      CLEAR     40  38  93 SW3         N/A
SAVANNA*       CLEAR     42  38  83 W5        30.31S
$$

ILZ003-004-008-010-011-017-018-161400-
NORTH CENTRAL ILLINOIS

CITY           SKY/WX    TMP DP  RH WIND       PRES   REMARKS
ROCKFORD       PTCLDY    39  38  96 S5        30.31S
FREEPORT*      CLEAR     39  37  91 SW5       30.31S
ROCHELLE*      CLEAR     38  38 100 CALM      30.31S
DE KALB*       CLEAR     43  39  86 SW6       30.31S
PERU*          CLEAR     41  38  89 SW7       30.33R
$$

ILZ005-006-012>014-019>023-161400-
NORTHEAST ILLINOIS

CITY           SKY/WX    TMP DP  RH WIND       PRES   REMARKS
CHICAGO-OHARE  PTCLDY    44  39  82 W6        30.31R
CHICAGO-MIDWAY PTCLDY    46  41  82 W6        30.31R
AURORA         CLEAR     41  40  96 CALM      30.32R
LANSING*       CLEAR     43  42  96 W6        30.33R
JOLIET*        CLEAR     40  40 100 CALM      30.33R
WAUKEGAN       CLEAR     45  41  86 CALM      30.29R
DUPAGE AIRPORT CLEAR     41  41 100 CALM      30.31R
KANKAKEE*      CLEAR     41  39  93 W3        30.35R
WHEELING       CLEAR     46  41  82 W5        30.32R
MORRIS*        CLEAR     41  39  95 CALM      30.33R
ROMEOVILLE*    CLEAR     41  41  97 CALM      30.33R
NORTHERLY ISL    N/A     46  40  79 W8          N/A
$$

LMZ740>746-161400-
SOUTHERN LAKE MICHIGAN

STATION/POSITION SKY/WX   TEMP    WIND        PRES    VSBY  WAVE
                          AIR SEA DIR/SP/G                  HT/PER
                          (F)     (DEG/KT/KT) (MB)    (MI)  (FT/S)
SOUTHERN BUOY              53 62  320/ 10/ 14 1025.5R         3/ 4
WILMETTE HARBOR            48 57  260/ 12/ 16   N/A           3/ 7
HARRISON CRIB              49     270/ 12/ 13   N/A
BURNHAM HARBOR             47     260/  9       N/A
CALUMET HARBOR             45     270/  1/  2 1025.8R
BURNS HARBOR               47     230/  6/  9 1026.8R
MICHIGAN CITY              52     270/ 12/ 13   N/A
MICHIGAN CITY 6N           52 57  280/ 12/ 16   N/A           4/ 6
ST. JOSEPH                 54 56  310/ 14/ 16 1026.0R         5/ 6
$$

ILZ025>027-034>036-040-047-049-050-058-095>099-161400-
WEST-CENTRAL ILLINOIS

CITY           SKY/WX    TMP DP  RH WIND       PRES   REMARKS
QUINCY         CLEAR     40  38  93 SW5       30.36R
GALESBURG*     CLEAR     37  37 100 S3        30.35R
MACOMB*        CLEAR     38  38  99 SW5       30.37R WCI  35
JACKSONVILLE*  CLEAR     42  40  94 CALM      30.37R
PITTSFIELD*    CLEAR     42  40  95 SW3       30.38R FOG
$$

ILZ028>032-037-038-041>044-048-051>054-059>061-161400-
CENTRAL ILLINOIS

CITY           SKY/WX    TMP DP  RH WIND       PRES   REMARKS
PONTIAC        CLEAR     41  40  99 CALM      30.35S
BLOOMINGTON    CLEAR     44  39  82 W8        30.36R
DECATUR        CLEAR     44  40  85 CALM      30.37R
PEORIA         CLEAR     40  39  97 S3        30.35R
LACON*         CLEAR     42  40  93 S5        30.33S
LINCOLN*       CLEAR     41  41  99 CALM      30.37R
SPRINGFIELD    CLEAR     41  40  96 CALM      30.37R
TAYLORVILLE    CLEAR     39  39  99 CALM      30.38R
$$

ILZ033-039-045-046-055>057-062-063-161400-
EAST-CENTRAL ILLINOIS

CITY           SKY/WX    TMP DP  RH WIND       PRES   REMARKS
CHAMPAIGN      CLEAR     42  39  89 W3        30.35R
DANVILLE*      CLEAR     41  39  95 CALM      30.32R
RANTOUL*       CLEAR     42  41  94 W5        30.35R
MATTOON        CLEAR     42  41  96 W5        30.35R
PARIS*         CLEAR     40  39  97 W5        30.36S
$$

ILZ079-100>102-161400-
SOUTHWEST ILLINOIS

CITY           SKY/WX    TMP DP  RH WIND       PRES   REMARKS
ALTON          CLEAR     37  37 100 CALM      30.39R
BELLEVILLE     CLEAR     40  38  92 CALM      30.38R
CAHOKIA*       CLEAR     41  40  96 CALM      30.39R
SPARTA*        CLEAR     42  42  99 CALM      30.39S
$$

ILZ064>066-069>071-074>076-080>082-084>086-088>090-092>094-161400-
SOUTH-CENTRAL ILLINOIS

CITY           SKY/WX    TMP DP  RH WIND       PRES   REMARKS
CARBONDALE     CLEAR     43  43 100 NW5       30.38R
CAIRO*         PTCLDY    44  42  95 CALM      30.37R
EFFINGHAM*     CLEAR     42  42 100 CALM      30.38S
MARION         CLEAR     45  43  93 N6        30.38R
MT. VERNON     CLEAR     40  40 100 CALM      30.38R
CENTRALIA*     CLEAR     40  40 100 CALM      30.37S
METROPOLIS*    CLEAR     44  42  95 N3        30.37R
$$

ILZ067-068-072-073-078-083-087-091-161400-
SOUTHEAST ILLINOIS

CITY           SKY/WX    TMP DP  RH WIND       PRES   REMARKS
LAWRENCEVILLE  SUNNY    N/A N/A N/A NW7       30.36R
FLORA*         CLEAR     45  41  86 NW6       30.37R
FAIRFIELD*     CLEAR     44  42  91 CALM      30.36R
HARRISBURG*    CLEAR     44  41  89 CALM      30.37S
ROBINSON*      SUNNY     42  42  98 CALM      30.38R
CARMI*         SUNNY     44  42  93 NW3       30.36R
$$

ABBREVIATIONS USED IN REMARKS
   TC - TEMPERATURE IN CELSIUS
  WCI - WIND CHILL INDEX
   HX - HEAT INDEX
  VSB - VISIBILITY
$$





USA.gov is the U.S. government's official web portal to all federal, state and local government web resources and services.